sat.trackr.live / text

‹ back to catalog

GSAT0232 (GALILEO 32)

NORAD 61182 · 2024-167A

PAYLOAD ACTIVE UNKNOWN

§ Identity

Operator
Country
ESA
Launch date
2024-09-17
Launch site
AFETR
Launch vehicle
Mass (kg)
RCS (m²)

Purposes: earth_obs, nav

External: N2YO · Heavens-Above · Gunter

§ Orbital elements

Epoch: 2026-09-19T09:48:08.721792Z

Period
844.70 min
Inclination
55.1639°
Eccentricity
0.0005399
Mean motion
1.70473721 rev/d
Perigee alt
23,206.2 km
Apogee alt
23,238.2 km
Semi-major
29,600.4 km
B*
0.0000e+0
RAAN
218.7303°
Arg perigee
235.5148°
Mean anomaly
318.9498°
Rev number
1,248

§ Raw data

GSAT0232 (GALILEO 32)1 61182U 24167A   26262.40843428  .00000017  00000+0  00000+0 0  99952 61182  55.1639 218.7303 0005399 235.5148 318.9498  1.70473721 12486

JSON: /api/v1/satellites/61182 · /tle

For live sub-satellite position, see the globe view (requires WebGL).

§ Visibility from observer

Set your observer location to see the next 7 days of passes ≥ 10°. The values pass through the URL so the page stays shareable.

No JS? Fill the form by hand. The geolocation button needs JavaScript.